367 Yatsuka. Observer H. Abe. 0.26-m f/6 reflector + CCD.
442 Gualba Observatory. Observer A. Sanchez. 0.36-m f/6 Schmidt-Cassegrain
+ CCD.
510 Siegen. Observers C. Springob, F. Feger, H. Bill. Measurer H. Bill.
0.30-m f/5 reflector + CCD.
A11 Wormhout. Observer S. Takbou. 0.20-m f/10 Schmidt-Cassegrain + CCD.
A46 Lelekovice. Observer K. Hornoch. 0.35-m f/4.7 reflector + CCD.
A77 Observatoire Chante-Perdrix, Dauban. Observer F. Kugel. 0.20-m f/5.5
Schmidt-Cassegrain + CCD.
D35 Lulin Observatory. Observers C. S. Lin, H. C. Lin, Q. Ye. Measurer Q. Ye.
0.40-m f/8.8 Ritchey-Chretien + CCD.
H06 New Mexico Skies Observatory. Observer M. Nicholson. 0.25-m f/3.8
astrograph + CCD.
H07 7300 Observatory, Cloudcroft. Observer W. K. Y. Yeung. 0.45-m f/3
Schmidt-Cassegrain + CCD.
H45 Petit Jean Mountain South. Observer P. C. Sherrod. 0.41-m f/3.3
Schmidt-Cassegrain + CCD.
Orbital elements:
The elements from MPEC 2006-G24 still represent the observed
positions to within a few arcseconds, with the exception of the
elements for fragments P and Q.
73P/Schwassmann-Wachmann P
Epoch 2006 May 25.0 TT = JDT 2453880.5
T 2006 June 7.91525 TT MPC
q 0.9387966 (2000.0) P Q
n 0.18816747 Peri. 199.01175 -0.02833741 +0.98234561
a 3.0160579 Node 69.70813 -0.88967158 +0.05955220
e 0.6887339 Incl. 11.37047 -0.45572083 -0.17734327
P 5.24
From 24 observations 2006 Mar. 23-Apr. 7, mean residual 0".85.
Residuals in seconds of arc
060323 G96 0.4+ 0.7- 060402 J95 0.3+ 0.0 060402 G96 0.6+ 0.5+
060323 G96 1.0+ 1.8+ 060402 J95 0.3- 1.2- 060403 D35 (3.4+ 1.9+)
060323 G96 0.3+ 0.2+ 060402 J95 0.4+ 0.4- 060403 D35 (2.7+ 1.4+)
060324 G96 0.1- 0.2- 060402 G96 0.3+ 0.9+ 060403 D35 (2.5+ 1.7+)
060324 G96 0.4+ 0.1- 060402 G96 0.2+ 1.0+ 060403 D35 (5.1+ 4.1+)
060324 G96 0.5- 0.1+ 060402 G96 1.1+ 0.8+ 060407 246 1.5- 1.4-
060324 G96 0.0 0.0 060402 G96 0.1- 0.6+ 060407 246 1.2- 0.1+
060325 G96 0.2- 0.7- 060402 G96 1.1+ 0.5- 060407 246 0.3+ 2.9+
060325 G96 1.8- 0.1- 060402 G96 0.3- 0.6-
060325 G96 1.2- 0.2+ 060402 G96 1.1- 0.1-
73P/Schwassmann-Wachmann Q
Epoch 2006 May 25.0 TT = JDT 2453880.5
T 2006 June 7.72559 TT MPC
q 0.9388296 (2000.0) P Q
n 0.18395339 Peri. 198.86149 -0.02860825 +0.98221509
a 3.0619459 Node 69.84237 -0.88981064 +0.05955873
e 0.6933879 Incl. 11.40103 -0.45543232 -0.17806256
P 5.36
From 16 observations 2006 Mar. 23-Apr. 7, mean residual 0".52.
Residuals in seconds of arc
060323 G96 0.2- 1.2- 060325 G96 0.1- 0.3- 060407 246 0.1+ 0.2-
060323 G96 0.6- 1.0+ 060325 G96 0.1- 0.2- 060407 246 0.2- 0.0
060323 G96 0.5- 0.2+ 060325 G96 0.7+ 0.3- 060407 246 0.3+ 0.0
060323 G96 0.4+ 0.7+ 060407 246 0.3- 0.6- 060407 246 0.1+ 0.6+
060324 G96 1.0+ 0.9+ 060407 246 0.1- 0.6+
060324 G96 0.4- 0.8- 060407 246 0.1- 0.3-
Gareth V. Williams (C) Copyright 2006 MPC M.P.E.C. 2006-G28
Read MPEC 2006-G27
Read MPEC 2006-G29
Enter an MPEC number in one of the following forms: